Topeka, KS

4:28 AM CST on February 21, 2017 (GMT -0600)
Forbes

Weather History for KFOE - December, 2013

Change the Weather History Date:

Saturday, December 21, 2013

  Actual Average Record
Temperature  
Mean Temperature 24 °F -  
Max Temperature 27 °F 35 °F 62 °F (1965)
Min Temperature 21 °F 18 °F -16 °F (1989)
Degree Days  
Heating Degree Days 41    
Moisture  
Dew Point 20 °F    
Average Humidity 82    
Maximum Humidity 89    
Minimum Humidity 75    
Precipitation  
Precipitation 0.23 in - - ()
Sea Level Pressure  
Sea Level Pressure 29.77 in    
Wind  
Wind Speed 8 mph (North)    
Max Wind Speed 14 mph    
Max Gust Speed 22 mph    
Visibility 5 miles    
Events Fog , Rain , Snow    
Averages and records for this station are not official NWS values.
T = Trace of Precipitation, MM = Missing Value Source: NWS Daily Summary

Daily Weather History Graph

Daily Weather History Graph

Search for Another Location

Airport or City:

Trip Planner

Search our weather history database for the weather conditions in past years. The results will help you decide how hot, cold, wet, or windy it might be!

Date:

Astronomy

Dec. 21, 2013 Rise Set
Actual Time 7:37 AM CST 5:03 PM CST
Civil Twilight 7:07 AM CST 5:34 PM CST
Nautical Twilight 6:34 AM CST 6:07 PM CST
Astronomical Twilight 6:01 AM CST 6:40 PM CST
Moon 9:19 PM CST 10:06 AM CST
Length of Visible Light 10h 26m
Length of Day
9h 26m
Waning Gibbous, 84% of the Moon is Illuminated
Dec 21
Waning Gibbous
Dec 25
Last Quarter
Jan 1
New
Jan 7
First Quarter
Jan 15
Full

Hourly Weather History & Observations

Time (CST) Temp. Windchill Dew Point Humidity Pressure Visibility Wind Dir Wind Speed Gust Speed Precip Events Conditions
12:01 AM 21.0 °F 12.4 °F 16.0 °F 81% 29.91 in 9.0 mi NW 6.9 mph - N/A   Overcast
12:42 AM 21.0 °F 10.6 °F 16.0 °F 81% 29.85 in 9.0 mi NNW 9.2 mph - N/A   Mostly Cloudy
12:53 AM 21.0 °F 9.3 °F 15.1 °F 78% 29.88 in 10.0 mi NNW 11.5 mph - N/A   Partly Cloudy
1:53 AM 21.0 °F 12.4 °F 15.1 °F 78% 29.84 in 9.0 mi NNW 6.9 mph - N/A   Mostly Cloudy
2:53 AM 21.0 °F 14.6 °F 16.0 °F 81% 29.87 in 9.0 mi North 4.6 mph - N/A   Mostly Cloudy
3:14 AM 21.9 °F 12.5 °F 16.0 °F 78% 29.81 in 8.0 mi NNW 8.1 mph - N/A   Mostly Cloudy
3:53 AM 21.9 °F 17.2 °F 16.0 °F 78% 29.87 in 8.0 mi North 3.5 mph - N/A   Overcast
4:20 AM 21.9 °F 17.2 °F 16.0 °F 78% 29.82 in 8.0 mi North 3.5 mph - N/A   Overcast
4:53 AM 21.9 °F 17.2 °F 17.1 °F 82% 29.88 in 8.0 mi ENE 3.5 mph - N/A   Overcast
5:53 AM 21.9 °F 15.7 °F 16.0 °F 78% 29.86 in 9.0 mi North 4.6 mph - N/A   Overcast
6:53 AM 21.9 °F 15.7 °F 16.0 °F 78% 29.86 in 9.0 mi NNE 4.6 mph - N/A   Overcast
7:46 AM 21.9 °F 13.4 °F 16.0 °F 78% 29.81 in 9.0 mi North 6.9 mph - N/A   Mostly Cloudy
7:53 AM 21.9 °F 14.5 °F 16.0 °F 78% 29.84 in 9.0 mi North 5.8 mph - N/A   Mostly Cloudy
8:53 AM 21.9 °F 11.7 °F 16.0 °F 78% 29.83 in 10.0 mi North 9.2 mph - N/A   Overcast
9:46 AM 23.0 °F 15.8 °F 17.1 °F 78% 29.81 in 10.0 mi North 5.8 mph - N/A   Overcast
9:53 AM 23.0 °F 13.9 °F 17.1 °F 78% 29.87 in 10.0 mi NNE 8.1 mph - N/A   Overcast
10:29 AM 23.0 °F 12.4 °F 17.1 °F 78% 29.81 in 9.0 mi NNE 10.4 mph - N/A   Overcast
10:53 AM 23.0 °F 13.1 °F 17.1 °F 78% 29.84 in 8.0 mi NNE 9.2 mph - N/A   Overcast
11:12 AM 24.1 °F 16.0 °F 17.1 °F 75% 29.81 in 8.0 mi North 6.9 mph - N/A   Overcast
11:53 AM 24.1 °F 14.4 °F 18.0 °F 77% 29.82 in 6.0 mi NNE 9.2 mph - N/A   Haze
12:53 PM 24.1 °F 13.7 °F 18.0 °F 77% 29.76 in 5.0 mi NNE 10.4 mph - N/A   Haze
1:53 PM 25.0 °F 17.1 °F 19.9 °F 81% 29.75 in 4.0 mi NE 6.9 mph - 0.00 in   Overcast
2:12 PM 25.0 °F 17.1 °F 21.0 °F 85% 29.71 in 3.0 mi NE 6.9 mph - 0.00 in Rain Light Freezing Rain
2:25 PM 25.0 °F 15.5 °F 21.0 °F 85% 29.70 in 3.0 mi NE 9.2 mph - 0.00 in Rain Light Freezing Rain
2:45 PM 25.0 °F 15.5 °F 21.0 °F 85% 29.70 in 3.0 mi NNE 9.2 mph - 0.00 in Rain Light Freezing Rain
2:53 PM 25.0 °F 15.5 °F 21.0 °F 85% 29.74 in 3.0 mi North 9.2 mph - 0.01 in   Overcast
3:08 PM 26.1 °F 18.4 °F 21.0 °F 81% 29.71 in 2.5 mi NNE 6.9 mph - 0.00 in   Overcast
3:20 PM 26.1 °F 16.8 °F 21.9 °F 84% 29.71 in 2.5 mi North 9.2 mph - 0.00 in Rain Light Freezing Rain
3:53 PM 26.1 °F 18.4 °F 23.0 °F 88% 29.76 in 2.0 mi North 6.9 mph - 0.02 in Rain Light Freezing Rain
4:38 PM 26.1 °F 16.2 °F 23.0 °F 88% 29.69 in 3.0 mi NNE 10.4 mph - 0.01 in Rain Light Freezing Rain
4:53 PM 26.1 °F 15.6 °F 23.0 °F 88% 29.73 in 3.0 mi NNE 11.5 mph - 0.01 in Rain Light Freezing Rain
5:53 PM 27.0 °F 15.6 °F 23.0 °F 85% 29.67 in 7.0 mi NNE 13.8 mph - 0.00 in Rain Light Freezing Rain
6:53 PM 27.0 °F 17.3 °F 24.1 °F 89% 29.70 in 6.0 mi NNE 10.4 mph - 0.01 in Rain Light Freezing Rain
7:22 PM 27.0 °F 16.7 °F 23.0 °F 85% 29.65 in 4.0 mi North 11.5 mph - 0.01 in Snow Light Snow
7:37 PM 27.0 °F 16.1 °F 23.0 °F 85% 29.67 in 2.5 mi North 12.7 mph - 0.02 in Snow Light Snow
7:45 PM 27.0 °F 18.7 °F 23.0 °F 85% 29.68 in 1.8 mi North 8.1 mph 20.7 mph 0.03 in Snow Light Snow
7:53 PM 27.0 °F 17.3 °F 23.0 °F 85% 29.73 in 1.5 mi North 10.4 mph - 0.04 in Snow Light Snow
8:08 PM 26.1 °F 16.2 °F 23.0 °F 88% 29.69 in 1.2 mi North 10.4 mph - 0.02 in Snow Light Snow
8:24 PM 26.1 °F 15.0 °F 23.0 °F 88% 29.69 in 1.5 mi North 12.7 mph - 0.03 in Snow Light Snow
8:46 PM 26.1 °F 15.6 °F 23.0 °F 88% 29.68 in 0.8 mi North 11.5 mph 21.9 mph 0.04 in Snow Light Snow
8:53 PM 26.1 °F 17.6 °F 23.0 °F 88% 29.72 in 0.8 mi North 8.1 mph - 0.05 in Snow Light Snow
9:07 PM 26.1 °F 15.6 °F 21.9 °F 84% 29.70 in 0.8 mi North 11.5 mph 18.4 mph 0.01 in Snow Light Snow
9:53 PM 25.0 °F 14.2 °F 21.9 °F 88% 29.76 in 0.8 mi North 11.5 mph - 0.06 in Snow Light Snow
10:02 PM 25.0 °F 14.2 °F 21.0 °F 85% 29.72 in 1.0 mi North 11.5 mph - 0.00 in Snow Light Snow
10:12 PM 25.0 °F 13.6 °F 21.0 °F 85% 29.73 in 1.5 mi North 12.7 mph - 0.00 in Snow Light Snow
10:53 PM 24.1 °F 12.0 °F 19.9 °F 84% 29.76 in 1.2 mi North 13.8 mph 21.9 mph 0.01 in Snow Light Snow
11:20 PM 24.1 °F 12.0 °F 21.0 °F 88% 29.73 in 0.8 mi North 13.8 mph - 0.00 in Snow Light Snow
11:49 PM 24.8 °F 16.9 °F 19.4 °F 80% 29.76 in 0.5 mi North 6.9 mph - 0.02 in Fog , Snow Snow
11:53 PM 24.1 °F 13.1 °F 19.9 °F 84% 29.80 in 0.5 mi North 11.5 mph - 0.02 in Fog , Snow Snow